[[{"header":{"parameterUnit":"m.s-1","parameterCategory":1,"la1":30.2991,"la2":30.254,"lo1":-89.0895,"lo2":-89.0444,"dy":0.0017,"dx":0.0017,"nx":28,"ny":28,"refTime":"2024-06-30T21:00:00:Z","depth":0,"parameterNumber":2,"parameterNumberName":"U-component_of_WINDS"},"data":[0,0,0,0,0,0,0,0,0,0,0,0,0,0,0,0,0,0,0,0,0,0,0,0,0,0,0,0,0,0,0,0,0,0,0,0,0,0,0,0,0,0,0,0,0,0,0,0,0,0,0,0,0,0,0,0,0,0,1.1505,1.1506,0,1.1571,1.1572,1.1572,1.155,1.1549,1.1548,1.1546,1.1616,1.1619,1.1622,0,0,0,0,0,0,0,0,0,0,0,0,0,1.1365,1.1367,1.1505,1.1506,1.1507,1.1571,1.1572,1.1573,1.1551,1.1549,1.1547,1.1546,1.1615,1.1619,1.1623,0,0,0,0,0,0,0,0,0,0,0,0,0,1.1428,1.1368,1.1505,1.1504,1.1504,1.1571,1.1572,1.1573,1.1551,1.1549,1.1547,1.1545,1.1614,1.1618,1.1623,1.1696,0,0,1.1638,1.164,0,0,0,0,0,0,0,0,1.1424,1.1433,1.1503,1.1504,1.1505,1.155,1.1548,1.1614,1.1552,1.1533,1.1546,1.1544,1.1596,1.1602,1.1619,1.1699,1.1702,1.1638,1.1641,1.1643,1.1645,0,0,0,0,0,0,0,1.142,1.143,1.1531,1.1504,1.1505,1.1501,1.1507,1.156,1.1576,1.1535,1.1533,1.1541,1.1596,1.1615,1.1621,1.1703,1.1638,1.1642,1.1645,1.1647,1.1847,1.185,0,0,0,0,0,0,1.1415,1.1426,1.1529,1.1533,1.1458,1.1505,1.1512,1.1538,1.1575,1.1579,1.1543,1.154,1.1608,1.1615,1.1623,1.1712,1.1643,1.1648,1.165,1.1845,1.1848,1.185,0,0,0,0,0,0,1.1412,1.1424,1.1527,1.148,1.1492,1.151,1.1539,1.154,1.1559,1.1582,1.1585,1.1559,1.1606,1.1616,1.1678,1.1714,1.165,1.1654,1.1842,1.1846,1.1849,1.1888,0,0,0,0,0,0,1.1408,1.1423,1.145,1.148,1.1495,1.158,1.1541,1.1543,1.1567,1.1563,1.1597,1.1601,1.1605,1.1671,1.1683,1.1719,1.1658,1.1839,1.1844,1.1848,1.1884,1.1893,1.19,0,0,0,0,0,1.1403,1.1459,1.1451,1.1464,1.1529,1.1582,1.159,1.1593,1.157,1.1598,1.1612,1.16,1.1708,1.1677,1.1691,1.1729,1.1837,1.1842,1.1848,1.188,1.1891,1.19,0,0,0,0,0,0,1.1433,1.1463,1.1455,1.1522,1.155,1.1578,1.1613,1.1604,1.164,1.1635,1.1638,1.1646,1.171,1.1725,1.1691,1.1802,1.1769,1.1777,1.1789,1.18,1.1808,1.1803,1.1662,0,0,0,0,0,1.1447,1.1487,1.1511,1.1568,1.1582,1.1595,1.1618,1.1618,1.1647,1.1659,1.1678,1.1707,1.1748,1.1775,1.1813,1.1886,1.1894,1.1919,1.1927,1.1934,1.1941,1.1982,1.1994,1.1868,1.1868,1.1868,0,0,1.1478,1.1499,1.1524,1.1575,1.1596,1.1638,1.1605,1.1651,1.1682,1.1666,1.1725,1.1741,1.1774,1.1841,1.1872,1.1856,1.1978,1.1941,1.1946,1.195,1.1989,1.2001,1.2011,1.1872,1.1871,1.1871,0,0,1.1555,1.1574,1.1625,1.1646,1.1678,1.1687,1.1699,1.1729,1.1738,1.1797,1.1786,1.1824,1.1894,1.1918,1.1939,1.2026,1.2017,1.2039,1.2082,1.2122,1.2132,1.2141,1.2173,1.2184,1.2046,1.2046,1.2046,0,1.1589,1.1651,1.1652,1.1698,1.1722,1.1708,1.176,1.1781,1.1825,1.1842,1.1823,1.191,1.1932,1.2005,1.2027,1.2044,1.2059,1.2035,1.213,1.2139,1.2148,1.2178,1.219,1.2049,1.2048,1.2048,1.2048,0,1.1692,1.1735,1.1771,1.1813,1.184,1.1889,1.1899,1.1927,1.1925,1.1935,1.1997,1.2022,1.2065,1.2083,1.2081,1.2157,1.2146,1.2129,1.2096,1.2162,1.2191,1.2202,1.2052,1.2051,1.2051,1.205,0,0,1.179,1.1831,1.1845,1.1864,1.1898,1.1932,1.1981,1.2023,1.2047,1.2078,1.212,1.2179,1.2164,1.2188,1.2189,1.2224,1.2293,1.2203,1.2204,1.222,1.2379,1.2392,1.2405,1.2286,1.2289,1.229,1.2376,0,1.187,1.1954,1.1957,1.2035,1.2076,1.2064,1.2106,1.2133,1.2145,1.2182,1.2195,1.2237,1.2213,1.2228,1.2262,1.2277,1.2325,1.2271,1.2327,1.2329,1.2319,1.242,1.2434,1.2514,1.2388,1.239,1.2391,0,1.1975,1.2008,1.209,1.2119,1.2137,1.2175,1.2214,1.2249,1.2279,1.2285,1.2313,1.2309,1.2361,1.2326,1.2397,1.236,1.2383,1.2395,1.2398,1.2404,1.2364,1.243,1.254,1.2552,1.2408,1.2407,1.2406,0,1.2039,1.2105,1.2162,1.2179,1.2214,1.2242,1.2258,1.2286,1.2312,1.2346,1.2363,1.2403,1.2426,1.2458,1.2466,1.2439,1.2538,1.2503,1.2545,1.2545,1.2567,1.2566,1.2683,1.2581,1.258,1.258,1.258,0,1.2129,1.218,1.2192,1.2227,1.2284,1.2287,1.2344,1.2358,1.2384,1.2423,1.2415,1.2452,1.246,1.2499,1.2506,1.2564,1.2575,1.2582,1.2583,1.2583,1.2582,1.2598,1.2593,1.2583,1.2583,1.2582,1.2581,0,1.2211,1.222,1.2283,1.2311,1.232,1.236,1.2386,1.242,1.2431,1.248,1.2492,1.251,1.2555,1.2566,1.2621,1.2625,1.2695,1.2691,1.2685,1.2685,1.2727,1.2723,1.2859,1.2878,1.2762,1.2764,1.2764,0,1.2268,1.2306,1.2339,1.2364,1.2382,1.2422,1.2448,1.2453,1.248,1.2518,1.2549,1.2593,1.2629,1.2703,1.2721,1.2763,1.2761,1.2805,1.2767,1.2766,1.2762,1.276,1.2765,1.2813,1.2814,1.2815,1.2816,0,1.2368,1.2371,1.2408,1.2447,1.2478,1.2509,1.2538,1.256,1.2569,1.26,1.2646,1.2674,1.273,1.2775,1.2817,1.2835,1.2828,1.2828,1.284,1.2841,1.2836,1.284,1.2706,1.2825,1.2824,1.2823,1.2823,1.2823,1.244,1.2474,1.2502,1.2544,1.2567,1.2595,1.2629,1.2644,1.2682,1.2727,1.2728,1.2779,1.2809,1.2865,1.2886,1.2926,1.2913,1.293,1.2935,1.2939,1.2943,1.2829,1.2934,1.2934,1.2934,1.2933,1.2933,0,1.2541,1.2558,1.2596,1.2638,1.2671,1.266,1.2692,1.2721,1.2766,1.2794,1.283,1.2883,1.2927,1.2949,1.2992,1.3021,1.3019,1.3032,1.3031,1.3035,1.2953,1.2938,1.3033,1.3033,1.3033,1.3033,1.3033,1.3033,1.2597,1.2654,1.2661,1.273,1.2748,1.2796,1.2816,1.2842,1.2865,1.2925,1.2961,1.2975,1.3001,1.3047,1.3087,1.3092,1.3109,1.3124,1.3128,1.3051,1.3041,1.3031,1.3017,1.3128,1.3128,1.3208,1.3208,1.3209]},{"header":{"parameterUnit":"m.s-1","parameterCategory":1,"la1":30.2991,"la2":30.254,"lo1":-89.0895,"lo2":-89.0444,"dy":0.0017,"dx":0.0017,"nx":28,"ny":28,"refTime":"2024-06-30T21:00:00:Z","depth":0,"parameterNumber":3,"parameterNumberName":"V-component_of_WINDS"},"data":[0,0,0,0,0,0,0,0,0,0,0,0,0,0,0,0,0,0,0,0,0,0,0,0,0,0,0,0,0,0,0,0,0,0,0,0,0,0,0,0,0,0,0,0,0,0,0,0,0,0,0,0,0,0,0,0,0,0,-1.2529,-1.2529,0,-1.2555,-1.2556,-1.2556,-1.2569,-1.2569,-1.2569,-1.2569,-1.2594,-1.2594,-1.2595,0,0,0,0,0,0,0,0,0,0,0,0,0,-1.2485,-1.2486,-1.2528,-1.2529,-1.2529,-1.2555,-1.2556,-1.2556,-1.2569,-1.2569,-1.2569,-1.2569,-1.2594,-1.2594,-1.2595,0,0,0,0,0,0,0,0,0,0,0,0,0,-1.2507,-1.2486,-1.2528,-1.2539,-1.254,-1.2555,-1.2556,-1.2556,-1.2569,-1.2569,-1.2569,-1.2569,-1.2593,-1.2594,-1.2595,-1.2602,0,0,-1.2598,-1.2599,0,0,0,0,0,0,0,0,-1.2506,-1.2509,-1.2537,-1.2538,-1.2539,-1.2559,-1.255,-1.2571,-1.2569,-1.2558,-1.2569,-1.2569,-1.2582,-1.2584,-1.2589,-1.2603,-1.2604,-1.2598,-1.2599,-1.2599,-1.26,0,0,0,0,0,0,0,-1.2504,-1.2508,-1.2539,-1.2537,-1.2539,-1.2541,-1.2544,-1.2554,-1.2569,-1.2559,-1.256,-1.2563,-1.2583,-1.2588,-1.259,-1.2604,-1.2598,-1.2599,-1.26,-1.26,-1.2624,-1.2624,0,0,0,0,0,0,-1.2502,-1.2506,-1.2538,-1.254,-1.2522,-1.2542,-1.2545,-1.2553,-1.2569,-1.2572,-1.2563,-1.2563,-1.2586,-1.2588,-1.259,-1.2599,-1.2599,-1.26,-1.2601,-1.2624,-1.2624,-1.2624,0,0,0,0,0,0,-1.2501,-1.2504,-1.2537,-1.2523,-1.2528,-1.2543,-1.2551,-1.2553,-1.2558,-1.2573,-1.2575,-1.2566,-1.2586,-1.2589,-1.2599,-1.26,-1.2601,-1.2602,-1.2624,-1.2624,-1.2624,-1.2615,0,0,0,0,0,0,-1.2499,-1.2504,-1.2507,-1.2523,-1.2528,-1.2546,-1.2551,-1.2554,-1.256,-1.2561,-1.2576,-1.2578,-1.2586,-1.2597,-1.26,-1.2601,-1.2603,-1.2624,-1.2624,-1.2624,-1.2616,-1.2615,-1.2615,0,0,0,0,0,-1.2498,-1.2503,-1.2507,-1.2511,-1.2533,-1.2546,-1.2549,-1.2559,-1.256,-1.2563,-1.2572,-1.2578,-1.2599,-1.2598,-1.2601,-1.2603,-1.2624,-1.2624,-1.2624,-1.2616,-1.2615,-1.2615,0,0,0,0,0,0,-1.2486,-1.2506,-1.251,-1.2522,-1.2532,-1.2548,-1.2552,-1.2558,-1.2568,-1.2568,-1.2579,-1.2582,-1.2591,-1.2598,-1.2596,-1.2609,-1.2612,-1.2613,-1.2605,-1.2604,-1.2604,-1.2602,-1.2603,0,0,0,0,0,-1.2485,-1.2495,-1.2511,-1.2519,-1.2524,-1.2537,-1.2543,-1.255,-1.2561,-1.2565,-1.2575,-1.2585,-1.2594,-1.2599,-1.2608,-1.2617,-1.262,-1.2619,-1.2619,-1.2618,-1.2619,-1.2623,-1.2623,-1.2624,-1.2624,-1.2624,0,0,-1.2483,-1.2494,-1.25,-1.2517,-1.2526,-1.2535,-1.2541,-1.255,-1.2557,-1.2567,-1.2577,-1.2584,-1.2595,-1.2604,-1.2609,-1.261,-1.2619,-1.2618,-1.2618,-1.2619,-1.2623,-1.2623,-1.2623,-1.2624,-1.2624,-1.2624,0,0,-1.2483,-1.2493,-1.2501,-1.251,-1.2523,-1.2532,-1.2534,-1.2549,-1.2554,-1.2565,-1.2572,-1.2579,-1.2595,-1.2602,-1.2608,-1.2611,-1.2616,-1.2613,-1.2611,-1.2615,-1.2615,-1.2615,-1.2615,-1.2615,-1.2614,-1.2614,-1.2614,0,-1.2478,-1.2492,-1.2504,-1.2513,-1.252,-1.253,-1.2537,-1.2545,-1.2561,-1.2565,-1.2566,-1.2586,-1.2594,-1.2605,-1.2605,-1.261,-1.2612,-1.2612,-1.2614,-1.2614,-1.2614,-1.2615,-1.2615,-1.2613,-1.2613,-1.2613,-1.2613,0,-1.2485,-1.2495,-1.25,-1.2515,-1.2523,-1.2531,-1.2543,-1.2549,-1.2555,-1.2563,-1.2572,-1.2583,-1.2594,-1.2597,-1.2603,-1.2608,-1.2609,-1.2612,-1.2615,-1.2614,-1.2614,-1.2615,-1.2613,-1.2613,-1.2613,-1.2613,0,0,-1.2479,-1.2501,-1.2503,-1.251,-1.2525,-1.2532,-1.254,-1.2552,-1.2557,-1.2567,-1.2573,-1.2586,-1.2589,-1.2596,-1.2602,-1.2606,-1.2606,-1.2608,-1.2609,-1.2608,-1.2613,-1.261,-1.261,-1.261,-1.261,-1.261,-1.2612,0,-1.2482,-1.2498,-1.2508,-1.2519,-1.2528,-1.2537,-1.2544,-1.2554,-1.2561,-1.2569,-1.2577,-1.2586,-1.2589,-1.2593,-1.2597,-1.2605,-1.2607,-1.2605,-1.2615,-1.2615,-1.2612,-1.2611,-1.2608,-1.2609,-1.2612,-1.2612,-1.2612,0,-1.2487,-1.2497,-1.251,-1.2524,-1.2528,-1.2534,-1.2545,-1.2553,-1.2564,-1.2569,-1.2576,-1.2583,-1.2591,-1.2592,-1.2603,-1.2601,-1.2606,-1.261,-1.261,-1.2612,-1.2614,-1.2612,-1.261,-1.261,-1.2613,-1.2613,-1.2613,0,-1.2481,-1.2498,-1.2508,-1.2514,-1.253,-1.2534,-1.2541,-1.2552,-1.2558,-1.2568,-1.2572,-1.2581,-1.2587,-1.2594,-1.2602,-1.2603,-1.2612,-1.2614,-1.2616,-1.2615,-1.2617,-1.2617,-1.2616,-1.262,-1.262,-1.262,-1.262,0,-1.2482,-1.249,-1.2506,-1.2511,-1.252,-1.2531,-1.2538,-1.2545,-1.2555,-1.2562,-1.257,-1.2576,-1.2587,-1.2594,-1.2601,-1.2608,-1.2611,-1.2614,-1.2616,-1.2614,-1.2613,-1.2617,-1.2617,-1.262,-1.262,-1.262,-1.262,0,-1.2477,-1.2489,-1.25,-1.2515,-1.2519,-1.2524,-1.2536,-1.2542,-1.2549,-1.2558,-1.256,-1.2572,-1.2581,-1.259,-1.2602,-1.2607,-1.2614,-1.2616,-1.261,-1.2611,-1.2612,-1.2612,-1.2613,-1.2614,-1.2617,-1.2617,-1.2617,0,-1.2478,-1.2484,-1.2499,-1.2505,-1.2512,-1.2521,-1.2527,-1.2538,-1.2544,-1.2556,-1.256,-1.257,-1.2578,-1.2591,-1.26,-1.2609,-1.2612,-1.2612,-1.2613,-1.261,-1.2612,-1.2611,-1.2612,-1.2611,-1.2611,-1.2611,-1.2611,0,-1.2477,-1.2482,-1.2492,-1.2503,-1.251,-1.2519,-1.2529,-1.2532,-1.2545,-1.2551,-1.256,-1.2567,-1.2579,-1.2588,-1.2598,-1.2604,-1.2609,-1.261,-1.2611,-1.2609,-1.2605,-1.2607,-1.2609,-1.261,-1.261,-1.261,-1.2611,-1.2611,-1.2475,-1.248,-1.2492,-1.2502,-1.251,-1.2519,-1.2525,-1.2533,-1.2542,-1.2553,-1.2558,-1.2567,-1.2577,-1.2591,-1.2597,-1.2604,-1.2605,-1.2607,-1.2607,-1.2607,-1.2606,-1.2604,-1.2606,-1.2606,-1.2606,-1.2606,-1.2606,0,-1.2474,-1.2483,-1.2492,-1.2505,-1.2512,-1.2517,-1.2527,-1.2533,-1.2541,-1.255,-1.2558,-1.2569,-1.2578,-1.2587,-1.2596,-1.26,-1.2602,-1.2602,-1.2602,-1.2603,-1.2604,-1.2603,-1.26,-1.26,-1.26,-1.26,-1.26,-1.26,-1.2475,-1.2485,-1.2491,-1.2504,-1.2512,-1.2522,-1.2527,-1.2535,-1.2542,-1.2553,-1.2561,-1.2567,-1.2576,-1.2586,-1.2594,-1.2596,-1.2599,-1.2598,-1.2601,-1.2602,-1.2603,-1.2603,-1.2602,-1.2598,-1.2598,-1.2599,-1.2599,-1.2599]}]]